Home > Weather > Orléans > Past weeks

Flag for France Past Weather in Orléans, Centre-Val de Loire, France — Yesterday and Last 2 Weeks

Now
72 °F

Broken clouds.


Feels Like: 76 °F
Forecast: 57 / 74 °F
Wind: 2 mph from North

Location: Orleans Airport

Current Time: Jul 30, 2016 at 1:18:38 PM

Latest Report: Jul 30, 2016 at 12:30 PM


Visibility: N/A

Pressure: 29.98 "Hg

Humidity: 61%

Dew Point: 57 °F

Location of OrléansLocation

Past Weather in Orléans — Graph

°F

Orléans Temperature Yesterday

Maximum temperature yesterday: 77 °F (at 4:00 PM)
Minimum temperature yesterday: 63 °F (at 3:00 AM)
Average temperature yesterday: 69 °F

High & Low Weather Summary for the Past Weeks

 TemperatureHumidityPressure
High97 °F (Jul 19, 3:30 PM)94% (Jul 16, 5:30 AM)30.36 "Hg (Jul 16, 5:30 AM)
Low52 °F (Jul 16, 5:00 AM)25% (Jul 19, 4:30 PM)29.89 "Hg (Jul 20, 5:00 AM)
Average71 °F64%30.10 "Hg
* Reported Jul 15 12:00 PM — Jul 30 12:00 PM, Orléans, Weather by CustomWeather, © 2016

Note: Actual official high and low records may vary slightly from our data, if they occured in-between our weather recording intervals... More about our weather records

Advertising

Orléans Weather History for the Previous 24 Hours

Scroll right to see more
 ConditionsComfort  
Time TempWeatherWind HumidityBarometerVisibility
12:00 PM
Sat, Jul 30
70 °FBroken clouds.3 mph60%29.98 "HgN/A
11:30 AM70 °FPartly sunny.2 mph64%29.98 "HgN/A
11:00 AM68 °FPartly sunny.2 mph64%29.98 "HgN/A
10:30 AM68 °FPartly sunny.3 mph69%29.98 "HgN/A
10:00 AM68 °FScattered clouds.No wind69%29.98 "HgN/A
9:30 AM66 °FPassing clouds.2 mph73%29.98 "HgN/A
9:00 AM64 °FSunny.No wind78%29.98 "Hg10 mi
8:30 AM63 °FSunny.3 mph77%29.98 "Hg10 mi
8:00 AM61 °FSunny.5 mph83%29.98 "Hg10 mi
7:30 AM59 °FPassing clouds.5 mph88%29.98 "HgN/A
7:00 AM59 °FPassing clouds.5 mph82%29.98 "HgN/A
6:30 AM61 °FOvercast.3 mph77%29.98 "HgN/A
6:00 AM61 °FPassing clouds.3 mph83%29.98 "HgN/A
5:30 AM61 °FPassing clouds.3 mph83%29.95 "HgN/A
5:00 AM64 °FOvercast.6 mph78%29.95 "HgN/A
4:30 AM64 °FOvercast.6 mph78%29.95 "HgN/A
4:00 AM66 °FOvercast.6 mph73%29.98 "HgN/A
3:30 AM66 °FMostly cloudy.6 mph73%29.98 "HgN/A
3:00 AM66 °FMostly cloudy.8 mph78%29.98 "HgN/A
2:30 AM68 °FMostly cloudy.7 mph73%29.98 "HgN/A
2:00 AM68 °FOvercast.7 mph73%29.98 "HgN/A
1:30 AM68 °FMostly cloudy.6 mph73%29.98 "HgN/A
1:00 AM68 °FOvercast.7 mph73%29.98 "HgN/A
12:30 AM70 °FMostly cloudy.3 mph69%29.98 "HgN/A
12:00 AM70 °FMostly cloudy.5 mph69%29.98 "HgN/A
11:30 PM
Fri, Jul 29
70 °FMostly cloudy.2 mph69%29.98 "HgN/A
11:00 PM70 °FPassing clouds.1 mph69%29.98 "HgN/A
10:30 PM70 °FMostly cloudy.No wind69%29.98 "HgN/A
10:00 PM70 °FMostly cloudy.2 mph69%29.95 "HgN/A
9:30 PM70 °FMore clouds than sun.2 mph69%29.95 "HgN/A
9:00 PM72 °FSunny.5 mph65%29.95 "Hg10 mi
8:30 PM73 °FOvercast.6 mph61%29.95 "HgN/A
8:00 PM73 °FBroken clouds.8 mph61%29.95 "HgN/A
7:30 PM75 °FMostly cloudy.10 mph61%29.95 "HgN/A
7:00 PM75 °FMostly cloudy.12 mph57%29.95 "HgN/A
6:30 PM77 °FCloudy.14 mph54%29.95 "HgN/A
6:00 PM77 °FMostly cloudy.15 mph57%29.95 "HgN/A
5:30 PM77 °FMostly cloudy.16 mph57%29.95 "HgN/A
5:00 PM77 °FCloudy.16 mph54%29.98 "HgN/A
4:30 PM77 °FMostly cloudy.18 mph54%29.98 "HgN/A
4:00 PM77 °FMore clouds than sun.16 mph57%29.98 "HgN/A
3:30 PM75 °FCloudy.18 mph61%29.98 "HgN/A
3:00 PM75 °FOvercast.17 mph61%29.98 "HgN/A
2:30 PM73 °FMostly cloudy.17 mph65%29.98 "HgN/A
2:00 PM73 °FMostly cloudy.17 mph65%29.98 "HgN/A
1:30 PM73 °FMostly cloudy.16 mph61%29.98 "HgN/A
1:00 PM73 °FMore clouds than sun.13 mph61%30.01 "HgN/A
Weather by CustomWeather, © 2016

See weather overviewHow to use our weather pages